W3EJE-13 Weather Reports


Display with metric or nautical units.
time (UTC)temp
F
wind
direction
speed
MPH
gust
MPH
rain 1hr
in
rain 24hr
in
rain mn
in
humidity
%
barometer
mb
20260502202700 45 267 6.0 7.0 0.00 0.00 0.00 70 1014.4
20260502202159 45 286 6.0 7.0 0.00 0.00 0.00 68 1014.5
20260502201656 46 338 5.0 7.0 0.00 0.00 0.00 67 1014.4
20260502201152 45 328 12.0 15.0 0.00 0.00 0.00 68 1014.4
20260502200648 45 342 7.0 8.0 0.00 0.00 0.00 66 1014.3
20260502200145 45 310 9.0 11.0 0.00 0.00 0.00 66 1014.7
20260502195643 45 297 6.0 7.0 0.00 0.00 0.00 70 1014.5
20260502195139 44 23 9.0 10.0 0.00 0.00 0.00 68 1014.6
20260502194636 45 318 7.0 8.0 0.00 0.00 0.00 68 1014.8
20260502194133 45 306 5.0 6.0 0.00 0.00 0.00 68 1014.7
20260502193629 46 345 7.0 8.0 0.00 0.00 0.00 69 1014.6
20260502193126 45 274 3.0 5.0 0.00 0.00 0.00 70 1014.7
20260502192621 46 283 6.0 6.0 0.00 0.00 0.00 68 1014.7
20260502192119 46 1 5.0 6.0 0.00 0.00 0.00 69 1014.9
20260502191616 45 255 6.0 7.0 0.00 0.00 0.00 72 1015.1
20260502191113 45 300 5.0 7.0 0.00 0.00 0.00 70 1015.1
20260502190611 44 294 6.0 7.0 0.00 0.00 0.00 69 1015.0
20260502190109 45 251 7.0 8.0 0.00 0.00 0.00 70 1015.2
20260502185603 45 16 9.0 9.0 0.00 0.00 0.00 70 1015.1
20260502185100 45 317 9.0 11.0 0.00 0.00 0.00 68 1015.2
20260502184556 45 339 7.0 8.0 0.00 0.00 0.00 67 1015.1
20260502184051 45 340 6.0 7.0 0.00 0.00 0.00 68 1015.1
20260502183548 46 276 6.0 7.0 0.00 0.00 0.00 69 1015.3
20260502183044 45 252 3.0 3.0 0.00 0.00 0.00 68 1015.3
20260502182539 44 330 5.0 7.0 0.00 0.00 0.00 68 1015.2
20260502182036 45 5 4.0 5.0 0.00 0.00 0.00 68 1015.6
20260502181534 45 285 5.0 5.0 0.00 0.00 0.00 71 1015.6
20260502181032 44 9 3.0 3.0 0.00 0.00 0.00 67 1015.6
20260502180529 44 259 2.0 2.0 0.00 0.00 0.00 70 1015.5
20260502170448 45 274 3.0 5.0 0.00 0.00 0.00 65 1015.4
20260502163931 44 304 6.0 7.0 0.00 0.00 0.00 69 1015.9
20260502163427 44 263 2.0 2.0 0.00 0.00 0.00 66 1015.6
20260502162925 43 303 3.0 3.0 0.00 0.00 0.00 66 1015.7
20260502162422 43 264 4.0 5.0 0.00 0.00 0.00 70 1015.9
20260502161919 43 338 12.0 15.0 0.00 0.00 0.00 68 1015.7
20260502161415 44 274 3.0 5.0 0.00 0.00 0.00 67 1015.7
20260502160913 43 263 2.0 2.0 0.00 0.00 0.00 70 1015.5
20260502160411 43 273 3.0 3.0 0.00 0.00 0.00 72 1015.9
20260502151850 42 301 7.0 9.0 0.00 0.00 0.00 75 1015.9
20260502151346 42 284 3.0 5.0 0.00 0.00 0.00 74 1015.6
20260502150843 43 332 7.0 9.0 0.00 0.00 0.00 73 1015.7
20260502150340 43 265 2.0 2.0 0.00 0.00 0.00 73 1015.6
20260502130728 39 276 7.0 8.0 0.00 0.00 0.00 86 1015.9
20260502130226 39 353 3.0 5.0 0.00 0.00 0.00 87 1015.7
20260502123712 38 265 5.0 7.0 0.00 0.00 0.00 87 1016.2
20260502123208 38 327 7.0 8.0 0.00 0.00 0.00 88 1016.3
20260502122704 37 285 5.0 6.0 0.00 0.00 0.00 88 1016.1
20260502122201 37 345 6.0 7.0 0.00 0.00 0.00 89 1016.2
20260502121700 38 273 5.0 6.0 0.00 0.00 0.00 89 1016.4
20260502121157 37 350 6.0 8.0 0.00 0.00 0.00 90 1016.1
20260502120653 37 286 5.0 5.0 0.00 0.00 0.00 90 1016.2
20260502120150 37 293 4.0 5.0 0.00 0.00 0.00 90 1016.4
20260502115648 37 264 2.0 2.0 0.00 0.00 0.00 90 1016.5
20260502115143 37 277 2.0 2.0 0.00 0.00 0.00 91 1016.2
20260502114640 37 294 2.0 2.0 0.00 0.00 0.00 91 1016.5
20260502114137 37 268 1.0 2.0 0.00 0.00 0.00 91 1016.5
20260502113635 37 277 2.0 2.0 0.00 0.00 0.00 92 1016.4
20260502113133 37 257 0.0 1.0 0.00 0.00 0.00 93 1016.5
20260502112631 36 266 0.0 1.0 0.00 0.00 0.00 93 1016.7
20260502112128 36 271 2.0 2.0 0.00 0.00 0.00 94 1016.7
20260502111625 36 264 2.0 2.0 0.00 0.00 0.00 96 1016.7
20260502111122 37 265 0.0 0.0 0.00 0.00 0.00 97 1016.5
20260502110620 36 265 1.0 2.0 0.00 0.00 0.00 97 1016.5
20260502110117 36 264 0.0 0.0 0.00 0.00 0.00 97 1016.2
20260502105615 36 264 0.0 0.0 0.00 0.00 0.00 97 1016.4
20260502105112 36 261 1.0 1.0 0.00 0.00 0.00 97 1016.6
20260502104609 36 259 0.0 0.0 0.00 0.00 0.00 97 1016.2
20260502104106 36 259 0.0 0.0 0.00 0.00 0.00 97 1016.3
20260502103604 36 260 0.0 0.0 0.00 0.00 0.00 97 1016.4
20260502103102 36 257 0.0 0.0 0.00 0.00 0.00 97 1016.1
20260502102558 36 257 0.0 0.0 0.00 0.00 0.00 98 1016.1
20260502102055 35 254 0.0 0.0 0.00 0.00 0.00 98 1016.2
20260502101553 35 255 0.0 0.0 0.00 0.00 0.00 98 1016.3
20260502101051 35 255 0.0 0.0 0.00 0.00 0.00 98 1016.4
20260502100549 35 256 0.0 0.0 0.00 0.00 0.00 98 1016.3
20260502091524 35 247 0.0 0.0 0.00 0.00 0.00 95 1016.2
20260502091021 35 257 0.0 0.0 0.00 0.00 0.00 94 1016.2
20260502090518 36 257 0.0 0.0 0.00 0.00 0.00 94 1016.1
20260502071412 38 308 4.0 5.0 0.00 0.00 0.00 92 1016.4
20260502070911 38 286 4.0 5.0 0.00 0.00 0.00 92 1016.1
20260502070408 38 5 5.0 6.0 0.00 0.00 0.00 91 1016.3
20260502065907 38 321 3.0 5.0 0.00 0.00 0.00 91 1016.2
20260502065405 38 2 5.0 5.0 0.00 0.00 0.00 91 1016.1
20260502064902 38 287 4.0 6.0 0.00 0.00 0.00 91 1016.1
20260502064400 38 318 3.0 3.0 0.00 0.00 0.00 91 1016.3
20260502063857 38 269 2.0 3.0 0.00 0.00 0.00 91 1015.9
20260502063355 38 321 5.0 7.0 0.00 0.00 0.00 90 1016.2
20260502062852 38 276 5.0 6.0 0.00 0.00 0.00 91 1016.1
20260502062349 38 332 3.0 3.0 0.00 0.00 0.00 91 1016.1
20260502061848 38 281 2.0 2.0 0.00 0.00 0.00 90 1016.1
20260502061345 38 297 2.0 3.0 0.00 0.00 0.00 91 1016.1
20260502060841 38 19 6.0 7.0 0.00 0.00 0.00 91 1016.2
20260502060336 38 285 3.0 3.0 0.00 0.00 0.00 90 1016.3
20260502055834 38 338 5.0 7.0 0.00 0.00 0.00 91 1016.1
20260502055332 38 357 7.0 9.0 0.00 0.00 0.00 91 1016.2
20260502054831 38 303 7.0 8.0 0.00 0.00 0.00 92 1016.2
20260502054328 39 291 5.0 6.0 0.00 0.00 0.00 93 1016.1
20260502053826 39 305 6.0 7.0 0.00 0.00 0.00 93 1016.1
20260502053323 39 322 5.0 6.0 0.00 0.00 0.00 94 1016.1
20260502052820 39 314 6.0 7.0 0.00 0.00 0.00 94 1016.1
20260502052318 39 341 6.0 7.0 0.00 0.00 0.00 94 1016.1
20260502051816 39 283 5.0 6.0 0.00 0.00 0.00 93 1015.9
20260502051315 40 345 7.0 9.0 0.00 0.00 0.00 92 1015.9
20260502050810 40 333 5.0 8.0 0.00 0.00 0.00 91 1015.9
20260502050307 40 9 5.0 8.0 0.00 0.00 0.00 92 1015.9
20260502045804 40 0 6.0 8.0 0.00 0.00 0.00 91 1016.0
20260502045300 40 259 4.0 5.0 0.00 0.00 0.00 91 1015.7
20260502044758 40 354 11.0 13.0 0.00 0.00 0.00 90 1015.7
20260502044254 40 27 10.0 11.0 0.00 0.00 0.00 91 1015.7
20260502043751 40 320 8.0 10.0 0.00 0.00 0.00 92 1015.9
20260502043249 40 297 6.0 7.0 0.00 0.00 0.00 92 1015.6
20260502042748 40 3 8.0 11.0 0.00 0.00 0.00 92 1015.7
20260502042245 40 289 8.0 10.0 0.00 0.00 0.00 93 1016.1
20260502041743 40 292 7.0 8.0 0.00 0.00 0.00 93 1015.9
20260502041240 41 318 5.0 6.0 0.00 0.00 0.00 93 1015.7
20260502040737 41 328 6.0 7.0 0.00 0.00 0.00 93 1015.9
20260502040234 41 315 5.0 7.0 0.00 0.00 0.00 93 1016.2
20260502035730 41 345 7.0 8.0 0.00 0.01 0.01 93 1015.9
20260502035227 41 337 5.0 6.0 0.00 0.01 0.01 94 1016.0
20260502034724 41 312 6.0 8.0 0.00 0.01 0.01 95 1015.9
20260502034222 41 316 6.0 8.0 0.00 0.01 0.01 95 1015.4
20260502033720 42 267 3.0 3.0 0.00 0.01 0.01 95 1015.2
20260502033218 42 341 5.0 6.0 0.00 0.01 0.01 95 1015.3
20260502032714 42 292 3.0 3.0 0.00 0.01 0.01 95 1015.3
20260502032210 42 290 4.0 6.0 0.00 0.01 0.01 94 1015.2
20260502031708 42 277 4.0 6.0 0.00 0.01 0.01 94 1015.3
20260502031206 42 275 2.0 2.0 0.00 0.01 0.01 95 1015.3
20260502030705 42 286 3.0 3.0 0.00 0.01 0.01 94 1015.2
20260502030202 42 331 4.0 6.0 0.00 0.01 0.01 94 1015.4
20260502025659 42 326 6.0 8.0 0.00 0.01 0.01 93 1014.9
20260502025157 42 306 4.0 5.0 0.00 0.01 0.01 93 1015.1
20260502024654 42 333 5.0 6.0 0.00 0.01 0.01 93 1015.1
20260502024153 42 287 5.0 6.0 0.00 0.01 0.01 93 1015.0
20260502023650 42 272 3.0 3.0 0.00 0.01 0.01 94 1015.0
20260502023147 42 294 7.0 8.0 0.00 0.01 0.01 95 1015.0
20260502022644 42 348 5.0 7.0 0.00 0.01 0.01 96 1015.0
20260502022141 42 250 2.0 2.0 0.00 0.01 0.01 97 1015.2
20260502021639 42 279 3.0 3.0 0.00 0.01 0.01 96 1015.0
20260502021135 42 270 3.0 3.0 0.00 0.01 0.01 96 1015.0
20260502020633 42 315 4.0 5.0 0.00 0.01 0.01 95 1015.0
20260502020129 43 351 7.0 8.0 0.00 0.01 0.01 95 1015.1
20260502015627 43 336 9.0 10.0 0.00 0.01 0.01 94 1014.9
20260502015123 43 333 12.0 13.0 0.00 0.01 0.01 95 1014.9
20260502014621 44 313 8.0 9.0 0.00 0.01 0.01 96 1014.7
20260502014118 44 297 3.0 3.0 0.00 0.01 0.01 95 1014.6
20260502013614 44 264 1.0 1.0 0.00 0.01 0.01 94 1014.4
20260502013109 44 264 1.0 1.0 0.00 0.01 0.01 94 1014.3
20260502012608 44 261 0.0 1.0 0.00 0.01 0.01 94 1014.4
20260502012105 44 273 2.0 2.0 0.00 0.01 0.01 94 1014.3
20260502011601 44 264 0.0 0.0 0.00 0.01 0.01 94 1014.1
20260502011057 44 262 1.0 1.0 0.00 0.01 0.01 94 1013.9
20260502010555 44 254 0.0 0.0 0.00 0.01 0.01 93 1013.8
20260502010051 44 255 0.0 0.0 0.00 0.01 0.01 93 1013.8
20260502005549 44 264 1.0 2.0 0.00 0.01 0.01 93 1014.1
20260502005047 44 262 1.0 1.0 0.00 0.01 0.01 93 1013.9
20260502004542 44 266 0.0 0.0 0.00 0.01 0.01 93 1013.7
20260502004039 44 264 2.0 2.0 0.00 0.01 0.01 93 1013.5
20260502003537 44 257 3.0 3.0 0.00 0.01 0.01 93 1013.7
20260502003034 44 245 1.0 1.0 0.00 0.01 0.01 94 1013.4
20260502002530 45 260 0.0 1.0 0.00 0.01 0.01 94 1013.6
20260502002027 45 263 0.0 1.0 0.05 0.01 0.01 94 1013.5
20260502001525 45 264 1.0 1.0 0.00 0.00 0.00 94 1013.5
20260502001022 45 261 0.0 1.0 0.00 0.00 0.00 94 1013.4
20260502000521 45 257 1.0 1.0 0.00 0.00 0.00 94 1013.6
20260502000017 45 273 4.0 6.0 0.00 0.00 0.00 93 1013.5
20260501235513 45 269 2.0 3.0 0.00 0.00 0.00 93 1013.5
20260501235009 46 252 0.0 1.0 0.00 0.00 0.00 93 1013.5
20260501234504 46 286 3.0 3.0 0.00 0.00 0.00 91 1013.5
20260501234003 46 261 0.0 0.0 0.00 0.00 0.00 90 1013.6
20260501233501 46 264 0.0 0.0 0.00 0.00 0.00 90 1013.4
20260501232956 46 313 5.0 6.0 0.00 0.00 0.00 89 1013.6
20260501232453 46 330 4.0 5.0 0.00 0.00 0.00 89 1013.3
20260501231950 46 275 3.0 3.0 0.00 0.00 0.00 89 1013.6
20260501231449 46 297 4.0 5.0 0.00 0.00 0.00 87 1013.4
20260501230946 47 292 5.0 6.0 0.00 0.00 0.00 87 1013.2
20260501230445 47 39 10.0 11.0 0.00 0.00 0.00 84 1013.4
20260501225943 47 315 11.0 13.0 0.00 0.00 0.00 83 1013.2
20260501225440 48 323 9.0 13.0 0.00 0.00 0.00 81 1013.1
20260501224936 49 36 10.0 13.0 0.00 0.00 0.00 77 1013.1
20260501224433 51 300 10.0 14.0 0.00 0.00 0.00 73 1012.9
20260501223930 52 287 5.0 8.0 0.00 0.00 0.00 66 1012.8
20260501223426 52 304 7.0 8.0 0.00 0.00 0.00 66 1012.5
20260501222922 53 295 7.0 9.0 0.00 0.00 0.00 65 1012.5
20260501222420 53 16 9.0 10.0 0.00 0.00 0.00 62 1012.3
20260501221916 53 321 5.0 6.0 0.00 0.00 0.00 60 1012.3
20260501221413 54 276 5.0 6.0 0.00 0.00 0.00 60 1012.4
20260501220911 55 345 5.0 6.0 0.00 0.00 0.00 59 1012.0
20260501220408 54 350 9.0 11.0 0.00 0.00 0.00 58 1012.1
20260501215904 54 294 5.0 8.0 0.00 0.00 0.00 59 1012.5
20260501215401 54 4 8.0 11.0 0.00 0.00 0.00 61 1012.3
20260501214856 55 349 10.0 13.0 0.00 0.00 0.00 58 1011.8
20260501214352 55 275 10.0 13.0 0.00 0.00 0.00 56 1011.7
20260501213848 55 310 13.0 17.0 0.00 0.00 0.00 54 1011.8
20260501213345 56 274 3.0 3.0 0.00 0.00 0.00 51 1011.7
20260501212840 56 357 6.0 7.0 0.00 0.00 0.00 52 1011.7
20260501212337 56 288 8.0 10.0 0.00 0.00 0.00 53 1011.6
20260501211834 56 291 8.0 10.0 0.00 0.00 0.00 53 1011.4
20260501211332 56 310 8.0 9.0 0.00 0.00 0.00 53 1011.4
20260501210828 56 301 12.0 14.0 0.00 0.00 0.00 51 1011.5
20260501210325 57 276 3.0 5.0 0.00 0.00 0.00 49 1011.5
20260501205816 56 330 7.0 8.0 0.00 0.00 0.00 50 1011.3
20260501205313 56 272 2.0 2.0 0.00 0.00 0.00 52 1011.4
20260501204810 56 283 4.0 5.0 0.00 0.00 0.00 49 1011.5
20260501204307 55 272 2.0 3.0 0.00 0.00 0.00 51 1011.5
20260501203803 56 288 10.0 10.0 0.00 0.00 0.00 50 1011.7
20260501203301 56 292 2.0 3.0 0.00 0.00 0.00 50 1011.3